Regional Weather Roundup
Issued by NWS Midland/Odessa, TX

Home | Current Version | Previous Version | Text Only | Print | Product List | Glossary On
Versions: 1 2 3 4 5 6 7 8 9 10 11 12 13 14 15 16 17 18 19 20 21 22 23 24 25 26 27 28 29 30 31 32 33 34 35 36 37 38 39 40 41 42 43 44 45 46 47 48 49 50
000
ASUS44 KMAF 210501
RWRMAF
MIDLAND AREA WEATHER ROUNDUP
NATIONAL WEATHER SERVICE MIDLAND TX
1200 AM CDT SAT APR 21 2018

...IN SOUTHWEST TEXAS AND SOUTHEAST NEW MEXICO...

CITY           SKY/WX    TMP DP  RH WIND       PRES   REMARKS
ALPINE         PTCLDY    64  13  13 CALM      30.05R
ANDREWS        FAIR      60  55  83 S8        29.93S
ARTESIA        CLEAR     59   5  11 W13       29.91S
BIG SPRING     CLOUDY    63  53  70 S16       29.98F
CARLSBAD       CLEAR     62   6  11 S3        29.91R
DRYDEN         NOT AVBL
FORT STOCKTON  PTCLDY    62  56  80 S9        29.92S
GUAD PASS      CLEAR     58   3  11 W21G36    30.00R
HOBBS          PTCLDY    57  52  82 S9        29.93S
LAMESA         CLOUDY    61  54  77 S20       29.92F
MARFA          CLOUDY    58   7  13 N9        30.03R
MIDLAND AIRPK    N/A     65  56  71 S14       29.93F
MIDLAND INTL   PTCLDY    65  56  72 S20       29.92F
ODESSA         CLEAR     63  56  78 S15       29.93F
PECOS          CLEAR     60  52  76 NE3       29.91R
PRESIDIO       FAIR      77   6   6 N9        29.90R
SEMINOLE       CLEAR     58  53  81 S7        29.94S
SNYDER         CLOUDY    61  51  70 S14G20    29.98S
WINK           CLEAR     60  54  80 S6        29.90R
$$
...OTHER STATIONS IN TEXAS...

CITY           SKY/WX    TMP DP  RH WIND       PRES   REMARKS
ABILENE        CLOUDY    61  48  62 SE16G25   29.96R
AMARILLO       CLOUDY    49  47  93 N9G23     29.99R
AUSTIN         CLOUDY    60  50  69 SE13      30.06F
BROWNSVILLE    FAIR      73  65  75 SE12      30.00F
CORPUS CHRISTI MOCLDY    69  67  93 SE10      30.02S
DALLAS FTW     PTCLDY    59  45  59 SE12      30.07R
DEL RIO        CLOUDY    67  59  75 E14G25    29.89F
EL PASO        CLEAR     65  14  14 NW22G32   29.97R
HOUSTON INT    MOCLDY    59  53  80 E9        30.11S
LUBBOCK        CLOUDY    61  53  75 S20       29.91S
SAN ANGELO     CLOUDY    62  54  74 S8        29.96R
SAN ANTONIO    CLOUDY    63  55  75 SE15      30.04F
WACO           MOCLDY    58  45  62 SE12      30.08R
WICHITA FALLS  LGT RAIN  56  37  49 E8        30.18R
$$
...OTHER LOCATIONS IN NEW MEXICO...

CITY           SKY/WX    TMP DP  RH WIND       PRES   REMARKS
ALAMOGORDO     CLEAR     55  16  21 S3        29.99S
ALBUQUERQUE    CLOUDY    47  31  53 W12       30.07S
CANNON AFB     FOG       48  48 100 N15       29.95  VSB 3/16
CLOVIS         LGT RAIN  49  48  97 NW14      29.94R VSB 1/2
HOLLOMAN AFB   NOT AVBL
ROSWELL        CLEAR     60   3  10 N14G20    29.91R
RUIDOSO        PTCLDY    46   7  19 NW7       30.06R
SANTA FE       CLOUDY    41  24  51 SW5       30.03S WCI  38
TRUTH OR CONSE CLEAR     54  29  38 NW25G37   30.00R
TUCUMCARI      CLOUDY    49  45  86 N12       29.97R
$$




USA.gov is the U.S. government's official web portal to all federal, state and local government web resources and services.